KB4SYV Weather Reports


Display with metric or nautical units.
time (UTC)temp
F
wind
direction
speed
MPH
gust
MPH
rain 1hr
in
rain 24hr
in
rain mn
in
humidity
%
barometer
mb
20260906120002 74 227 0.0 0.0 0.00 0.07 0.01 88 1034.4
20260906115502 74 227 0.0 0.0 0.00 0.07 0.01 88 1034.4
20260906115002 74 227 0.0 0.0 0.00 0.07 0.01 88 1034.3
20260906114503 74 227 0.0 0.0 0.00 0.07 0.01 87 1034.3
20260906114002 74 227 0.0 0.0 0.00 0.07 0.01 88 1034.3
20260906113503 74 227 0.0 0.0 0.00 0.07 0.01 87 1034.2
20260906113003 74 227 0.0 0.0 0.00 0.07 0.01 87 1034.2
20260906112503 74 227 0.0 0.0 0.00 0.07 0.01 87 1034.1
20260906112002 74 227 0.0 0.0 0.00 0.07 0.01 87 1034.1
20260906111503 74 227 0.0 0.0 0.00 0.07 0.01 87 1034.1
20260906111002 75 227 0.0 0.0 0.00 0.07 0.01 86 1034.1
20260906110503 75 227 0.0 1.0 0.00 0.07 0.01 85 1034.1
20260906110002 75 227 0.0 3.0 0.00 0.07 0.01 85 1034.1
20260906105503 75 270 2.0 3.0 0.00 0.07 0.01 85 1034.0
20260906105023 75 249 1.0 4.0 0.00 0.07 0.01 85 1033.9
20260906104545 75 97 0.0 5.0 0.00 0.07 0.01 85 1033.9
20260906104003 75 122 0.0 12.0 0.00 0.07 0.01 86 1033.8
20260906103003 73 63 1.0 8.0 0.00 0.07 0.01 89 1033.9
20260906102502 72 0 1.0 5.0 0.00 0.07 0.01 91 1033.9
20260906102003 72 60 1.0 8.0 0.00 0.07 0.01 93 1034.0
20260906101503 71 36 1.0 8.0 0.00 0.07 0.01 95 1033.9
20260906101002 71 85 0.0 6.0 0.00 0.07 0.01 95 1034.0
20260906100503 70 309 0.0 0.0 0.00 0.07 0.01 96 1034.0
20260906100002 70 309 0.0 1.0 0.00 0.07 0.01 96 1034.1
20260906095503 70 308 0.0 1.0 0.00 0.07 0.01 96 1034.0
20260906095002 70 61 0.0 0.0 0.00 0.07 0.01 96 1034.0
20260906094523 70 61 0.0 0.0 0.00 0.07 0.01 96 1034.1
20260906094003 70 61 0.0 0.0 0.00 0.07 0.01 96 1034.1
20260906093502 70 61 0.0 0.0 0.00 0.07 0.01 96 1034.0
20260906093004 69 61 0.0 0.0 0.00 0.07 0.01 96 1034.1
20260906092502 69 61 0.0 0.0 0.00 0.07 0.01 96 1034.1
20260906092003 69 61 0.0 0.0 0.00 0.07 0.01 96 1034.1
20260906091503 69 61 0.0 0.0 0.00 0.07 0.01 96 1034.1
20260906091024 69 61 0.0 1.0 0.00 0.07 0.01 96 1034.1
20260906090503 69 59 0.0 1.0 0.00 0.07 0.01 96 1034.2
20260906090024 69 265 0.0 0.0 0.01 0.07 0.01 96 1034.2
20260906085503 69 265 0.0 0.0 0.01 0.07 0.01 96 1034.1
20260906085003 69 265 0.0 0.0 0.01 0.07 0.01 96 1034.1
20260906084502 69 265 0.0 0.0 0.01 0.07 0.01 95 1034.1
20260906084003 69 265 0.0 0.0 0.01 0.07 0.01 95 1034.1
20260906083525 69 265 0.0 0.0 0.01 0.07 0.01 96 1034.1
20260906083023 69 265 0.0 0.0 0.01 0.07 0.01 96 1034.1
20260906082502 69 265 0.0 0.0 0.01 0.07 0.01 95 1034.1
20260906082002 69 265 0.0 0.0 0.00 0.06 0.00 95 1034.1
20260906081503 69 265 0.0 0.0 0.00 0.06 0.00 95 1034.0
20260906081002 69 265 0.0 0.0 0.00 0.06 0.00 95 1033.9
20260906080503 69 265 0.0 0.0 0.00 0.06 0.00 95 1033.8
20260906080003 69 265 0.0 0.0 0.00 0.06 0.00 95 1033.7
20260906075502 70 265 0.0 0.0 0.00 0.06 0.00 95 1033.7
20260906075003 70 265 0.0 0.0 0.00 0.06 0.00 95 1033.7
20260906074502 69 265 0.0 0.0 0.00 0.06 0.00 95 1033.7
20260906074003 69 265 0.0 0.0 0.00 0.06 0.00 95 1033.7
20260906073502 70 265 0.0 0.0 0.00 0.06 0.00 95 1033.7
20260906072502 70 265 0.0 0.0 0.00 0.06 0.00 95 1033.8
20260906072003 70 265 0.0 0.0 0.00 0.06 0.00 95 1033.8
20260906071502 70 265 0.0 0.0 0.00 0.06 0.00 95 1033.9
20260906071003 70 265 0.0 0.0 0.00 0.06 0.00 95 1033.8
20260906070502 70 265 0.0 0.0 0.00 0.06 0.00 95 1033.8
20260906070003 70 265 0.0 0.0 0.00 0.06 0.00 95 1033.8
20260906065524 70 265 0.0 0.0 0.00 0.06 0.00 95 1033.8
20260906065002 70 265 0.0 0.0 0.00 0.06 0.00 95 1033.9
20260906064503 70 265 0.0 0.0 0.00 0.06 0.00 95 1033.9
20260906064002 70 265 0.0 0.0 0.00 0.06 0.00 95 1034.0
20260906063524 70 265 0.0 0.0 0.00 0.06 0.00 95 1034.2
20260906063003 70 265 0.0 0.0 0.00 0.06 0.00 95 1034.2
20260906062523 70 265 0.0 0.0 0.00 0.06 0.00 95 1034.0
20260906062003 70 265 0.0 0.0 0.00 0.06 0.00 95 1034.0
20260906061545 70 265 0.0 0.0 0.00 0.06 0.00 95 1034.0
20260906061003 70 265 0.0 0.0 0.00 0.06 0.00 95 1034.0
20260906060503 70 265 0.0 0.0 0.00 0.06 0.00 95 1034.1
20260906060003 70 265 0.0 0.0 0.00 0.06 0.00 95 1034.1
20260906055503 70 265 0.0 0.0 0.00 0.06 0.00 95 1034.2
20260906055023 71 265 0.0 0.0 0.00 0.06 0.00 95 1034.2
20260906054503 71 265 0.0 0.0 0.00 0.06 0.00 95 1034.3
20260906054002 71 265 0.0 0.0 0.00 0.06 0.00 95 1034.4
20260906053524 71 265 0.0 0.0 0.00 0.06 0.00 94 1034.5
20260906053024 71 265 0.0 0.0 0.00 0.06 0.00 94 1034.5
20260906052524 71 265 0.0 0.0 0.00 0.06 0.00 94 1034.7
20260906052003 71 265 0.0 0.0 0.00 0.06 0.00 95 1034.5
20260906051503 71 265 0.0 2.0 0.00 0.06 0.00 95 1034.5
20260906051003 71 264 0.0 2.0 0.00 0.06 0.00 94 1034.5
20260906050503 71 56 0.0 0.0 0.00 0.06 0.00 94 1034.5
20260906050002 71 56 0.0 0.0 0.06 0.06 0.00 94 1034.4
20260906045503 71 56 0.0 0.0 0.06 0.12 0.06 94 1034.5
20260906044503 71 56 0.0 0.0 0.06 0.12 0.06 94 1034.6
20260906044045 71 56 0.0 0.0 0.06 0.12 0.06 94 1034.5
20260906043502 72 56 0.0 0.0 0.06 0.12 0.06 94 1034.6
20260906043003 72 56 0.0 0.0 0.06 0.12 0.06 94 1034.6
20260906042524 72 56 0.0 0.0 0.06 0.12 0.06 94 1034.6
20260906042003 72 56 0.0 0.0 0.06 0.12 0.06 94 1034.7
20260906041503 72 56 0.0 0.0 0.06 0.12 0.06 94 1034.6
20260906041002 72 56 0.0 0.0 0.06 0.12 0.06 93 1034.5
20260906040504 72 56 0.0 2.0 0.06 0.12 0.06 93 1034.4
20260906040002 72 56 0.0 2.0 0.00 0.06 0.06 93 1034.4
20260906035503 72 109 0.0 0.0 0.00 0.06 0.06 94 1034.6
20260906035002 72 109 0.0 0.0 0.00 0.06 0.06 94 1034.6
20260906034503 72 109 0.0 0.0 0.00 0.06 0.06 94 1034.6
20260906034003 73 109 0.0 0.0 0.00 0.06 0.06 94 1034.7
20260906033502 73 109 0.0 0.0 0.00 0.06 0.06 94 1034.7
20260906033003 73 109 0.0 3.0 0.00 0.06 0.06 94 1034.6
20260906032523 73 92 1.0 3.0 0.00 0.06 0.06 94 1034.7
20260906032003 73 119 0.0 0.0 0.00 0.06 0.06 94 1034.7
20260906031524 73 119 0.0 2.0 0.00 0.06 0.06 94 1034.7
20260906031002 73 119 0.0 2.0 0.00 0.06 0.06 94 1034.8
20260906030503 73 61 0.0 3.0 0.00 0.06 0.06 94 1034.7
20260906030002 73 61 0.0 3.0 0.00 0.06 0.06 93 1034.6
20260906025503 73 37 0.0 0.0 0.00 0.06 0.06 93 1034.6
20260906025003 73 37 0.0 0.0 0.00 0.06 0.06 93 1034.8
20260906024503 73 37 0.0 0.0 0.00 0.06 0.06 93 1034.7
20260906024003 74 37 0.0 0.0 0.00 0.06 0.06 93 1034.8
20260906023502 74 37 0.0 0.0 0.00 0.06 0.06 93 1034.7
20260906023003 74 37 0.0 0.0 0.00 0.06 0.06 93 1034.8
20260906022502 74 37 0.0 0.0 0.00 0.06 0.06 93 1034.7
20260906022003 74 37 0.0 3.0 0.00 0.06 0.06 93 1034.6
20260906021502 74 68 1.0 3.0 0.00 0.06 0.06 93 1034.6
20260906021003 74 46 0.0 2.0 0.00 0.06 0.06 93 1034.8
20260906020503 74 46 0.0 2.0 0.00 0.06 0.06 94 1034.7
20260906020003 74 341 0.0 2.0 0.00 0.06 0.06 94 1034.9
20260906015503 74 341 0.0 3.0 0.00 0.06 0.06 94 1034.9
20260906015003 74 212 1.0 3.0 0.00 0.06 0.06 93 1035.0
20260906014503 74 33 1.0 2.0 0.00 0.06 0.06 93 1034.8
20260906014002 74 331 0.0 0.0 0.00 0.06 0.06 93 1034.7
20260906013503 74 331 0.0 0.0 0.00 0.06 0.06 93 1034.6
20260906013002 74 331 0.0 0.0 0.00 0.06 0.06 93 1034.4
20260906012503 74 331 0.0 0.0 0.00 0.06 0.06 93 1034.1
20260906012003 74 331 0.0 0.0 0.00 0.06 0.06 92 1033.9
20260906011504 74 331 0.0 0.0 0.00 0.06 0.06 92 1033.8
20260906011003 74 331 0.0 0.0 0.00 0.06 0.06 92 1033.7
20260906010523 74 331 0.0 0.0 0.00 0.06 0.06 92 1033.4
20260906010003 75 331 0.0 0.0 0.00 0.06 0.06 92 1033.1
20260906005503 75 331 0.0 0.0 0.00 0.06 0.06 92 1033.1
20260906005003 75 331 0.0 0.0 0.00 0.06 0.06 92 1033.1
20260906004524 75 331 0.0 0.0 0.00 0.06 0.06 91 1033.0
20260906004002 75 331 0.0 0.0 0.00 0.06 0.06 91 1033.0
20260906003503 75 331 0.0 0.0 0.00 0.06 0.06 91 1032.9
20260906003003 78 331 0.0 0.0 0.00 0.06 0.06 90 1032.8
20260906002502 79 331 0.0 0.0 0.00 0.06 0.06 90 1032.8
20260906002003 79 331 0.0 0.0 0.00 0.06 0.06 91 1032.7
20260906001502 75 331 0.0 0.0 0.00 0.06 0.06 91 1032.6
20260906001003 76 331 0.0 0.0 0.00 0.06 0.06 91 1032.5
20260906000502 75 331 0.0 0.0 0.00 0.06 0.06 90 1032.4
20260906000003 76 331 0.0 0.0 0.00 0.06 0.06 90 1032.4
20260905235503 76 331 0.0 0.0 0.00 0.06 0.06 91 1032.4
20260905234525 76 331 0.0 1.0 0.00 0.06 0.06 90 1032.7
20260905234003 76 331 0.0 1.0 0.00 0.06 0.06 91 1032.7
20260905233502 76 296 0.0 0.0 0.00 0.06 0.06 91 1032.9
20260905233003 76 296 0.0 0.0 0.00 0.06 0.06 90 1033.1
20260905232502 76 296 0.0 0.0 0.00 0.06 0.06 90 1032.9
20260905232003 76 296 0.0 0.0 0.00 0.06 0.06 91 1033.0
20260905231503 76 296 0.0 0.0 0.00 0.06 0.06 90 1033.2
20260905231002 76 296 0.0 0.0 0.00 0.06 0.06 90 1033.2
20260905230525 76 296 0.0 0.0 0.00 0.06 0.06 90 1033.4
20260905230002 76 296 0.0 0.0 0.01 0.06 0.06 89 1033.4
20260905225503 76 296 0.0 0.0 0.01 0.06 0.06 89 1033.1
20260905225002 76 296 0.0 1.0 0.01 0.06 0.06 89 1033.0
20260905224502 76 296 0.0 2.0 0.01 0.06 0.06 88 1032.9
20260905224002 76 347 1.0 3.0 0.01 0.06 0.06 89 1033.0
20260905223502 76 43 0.0 3.0 0.01 0.06 0.06 89 1033.2
20260905223003 76 63 1.0 3.0 0.01 0.06 0.06 90 1033.4
20260905222502 76 330 1.0 2.0 0.01 0.06 0.06 89 1033.3
20260905222003 76 277 1.0 2.0 0.01 0.06 0.06 87 1032.9
20260905221523 76 336 0.0 0.0 0.01 0.06 0.06 86 1032.5
20260905221002 76 336 0.0 3.0 0.01 0.06 0.06 85 1032.3
20260905220502 77 314 0.0 6.0 0.00 0.06 0.05 82 1032.2
20260905220003 78 34 2.0 7.0 0.05 0.05 0.05 81 1032.4
20260905215502 78 72 2.0 12.0 0.05 0.05 0.05 77 1032.4
20260905214502 82 27 4.0 15.0 0.04 0.04 0.04 73 1033.0
20260905214003 84 57 4.0 15.0 0.03 0.03 0.03 65 1033.7
20260905213502 88 62 6.0 15.0 0.01 0.01 0.01 59 1033.6
20260905213003 91 62 5.0 15.0 0.00 0.00 0.00 53 1032.8
20260905212502 92 55 1.0 13.0 0.00 0.00 0.00 46 1032.7
20260905212003 93 13 1.0 8.0 0.00 0.00 0.00 47 1032.4
20260905211503 93 9 0.0 1.0 0.00 0.00 0.00 47 1032.3
20260905211002 93 53 0.0 4.0 0.00 0.00 0.00 47 1032.2
20260905210503 93 78 1.0 4.0 0.00 0.00 0.00 46 1032.3
20260905210002 93 59 1.0 3.0 0.00 0.00 0.00 45 1032.3
20260905205546 94 58 1.0 3.0 0.00 0.00 0.00 45 1032.2
20260905205002 94 21 0.0 4.0 0.00 0.00 0.00 43 1032.1
20260905204503 95 66 1.0 6.0 0.00 0.00 0.00 42 1032.2
20260905204002 96 66 1.0 6.0 0.00 0.00 0.00 40 1032.2
20260905203502 97 71 1.0 4.0 0.00 0.00 0.00 38 1032.2
20260905203003 97 130 0.0 4.0 0.00 0.00 0.00 38 1032.3
20260905202502 97 106 0.0 4.0 0.00 0.00 0.00 38 1032.5
20260905202003 96 295 0.0 6.0 0.00 0.00 0.00 42 1032.4
20260905201524 96 78 0.0 6.0 0.00 0.00 0.00 42 1032.5
20260905201002 96 61 0.0 5.0 0.00 0.00 0.00 42 1032.4
20260905200503 96 54 1.0 5.0 0.00 0.00 0.00 42 1032.5
20260905200003 96 59 0.0 4.0 0.00 0.00 0.00 42 1032.6
20260905195524 95 86 1.0 3.0 0.00 0.00 0.00 44 1032.6
20260905195002 95 144 0.0 3.0 0.00 0.00 0.00 42 1032.7
20260905194502 96 102 0.0 3.0 0.00 0.00 0.00 43 1032.7
20260905194002 96 72 1.0 4.0 0.00 0.00 0.00 40 1032.8
20260905193502 97 95 1.0 4.0 0.00 0.00 0.00 38 1032.9
20260905193002 97 37 0.0 7.0 0.00 0.00 0.00 37 1032.9
20260905192523 97 60 2.0 7.0 0.00 0.00 0.00 39 1033.1
20260905192024 96 84 0.0 2.0 0.00 0.00 0.00 40 1033.1
20260905191524 96 122 1.0 4.0 0.00 0.00 0.00 41 1033.3
20260905191045 96 50 0.0 4.0 0.00 0.00 0.00 43 1033.3
20260905190503 96 57 1.0 2.0 0.00 0.00 0.00 43 1033.4
20260905190002 95 140 0.0 4.0 0.00 0.00 0.00 44 1033.4
20260905185503 95 326 1.0 4.0 0.00 0.00 0.00 43 1033.4
20260905185003 94 321 2.0 4.0 0.00 0.00 0.00 45 1033.4
20260905184502 95 297 0.0 5.0 0.00 0.00 0.00 44 1033.7
20260905183503 96 144 2.0 5.0 0.00 0.00 0.00 42 1033.7
20260905183004 95 99 2.0 7.0 0.00 0.00 0.00 44 1033.8
20260905182503 95 48 2.0 7.0 0.00 0.00 0.00 46 1033.9
20260905182003 95 194 1.0 5.0 0.00 0.00 0.00 46 1033.9
20260905181502 95 297 1.0 5.0 0.00 0.00 0.00 44 1034.0
20260905181003 95 117 2.0 5.0 0.00 0.00 0.00 43 1034.2
20260905180502 95 83 0.0 5.0 0.00 0.00 0.00 48 1034.3
20260905180003 94 120 1.0 8.0 0.00 0.00 0.00 48 1034.4
20260905175502 94 40 2.0 8.0 0.00 0.00 0.00 48 1034.3
20260905175003 94 56 1.0 6.0 0.00 0.00 0.00 49 1034.4
20260905174502 94 332 2.0 6.0 0.00 0.00 0.00 50 1034.5
20260905174023 94 357 2.0 5.0 0.00 0.00 0.00 50 1034.6
20260905173503 94 317 1.0 5.0 0.00 0.00 0.00 49 1034.7
20260905173002 93 46 1.0 6.0 0.00 0.00 0.00 51 1034.8
20260905172503 93 14 1.0 6.0 0.00 0.00 0.00 52 1034.8
20260905172002 93 47 0.0 4.0 0.00 0.00 0.00 51 1034.9
20260905171503 92 178 1.0 4.0 0.00 0.00 0.00 51 1034.9
20260905171003 93 123 1.0 4.0 0.00 0.00 0.00 50 1035.0
20260905170502 93 90 1.0 6.0 0.00 0.00 0.00 50 1035.0
20260905170003 93 104 2.0 6.0 0.00 0.00 0.00 51 1035.0
20260905165523 94 73 0.0 4.0 0.00 0.00 0.00 50 1035.1
20260905165003 93 58 1.0 6.0 0.00 0.00 0.00 51 1035.1
20260905164502 93 37 1.0 9.0 0.00 0.00 0.00 51 1035.2
20260905164003 93 53 5.0 9.0 0.00 0.00 0.00 51 1035.3
20260905163502 93 313 3.0 7.0 0.00 0.00 0.00 49 1035.2
20260905163003 93 34 0.0 5.0 0.00 0.00 0.00 50 1035.4
20260905162502 92 82 2.0 6.0 0.00 0.00 0.00 51 1035.6
20260905162004 92 121 2.0 8.0 0.00 0.00 0.00 49 1035.7
20260905161502 92 88 3.0 8.0 0.00 0.00 0.00 51 1035.8
20260905161003 92 50 2.0 6.0 0.00 0.00 0.00 52 1035.9
20260905160502 92 106 1.0 6.0 0.00 0.00 0.00 53 1035.9
20260905160003 91 292 0.0 6.0 0.00 0.00 0.00 53 1035.9
20260905155503 91 5 0.0 8.0 0.00 0.00 0.00 53 1036.0
20260905155045 91 77 3.0 8.0 0.00 0.00 0.00 54 1036.1
20260905154503 91 81 2.0 7.0 0.00 0.00 0.00 55 1036.1
20260905154003 90 124 1.0 8.0 0.00 0.00 0.00 55 1036.2
20260905153502 90 74 3.0 8.0 0.00 0.00 0.00 55 1036.2
20260905153003 90 102 0.0 2.0 0.00 0.00 0.00 57 1036.2
20260905152502 90 306 1.0 4.0 0.00 0.00 0.00 58 1036.3
20260905152002 90 264 0.0 4.0 0.00 0.00 0.00 56 1036.3
20260905151545 90 150 0.0 3.0 0.00 0.00 0.00 57 1036.3
20260905151024 90 67 0.0 3.0 0.00 0.00 0.00 57 1036.3
20260905150502 90 113 0.0 1.0 0.00 0.00 0.00 62 1036.4
20260905150003 90 119 0.0 3.0 0.00 0.00 0.00 63 1036.4
20260905145502 89 52 1.0 3.0 0.00 0.00 0.00 60 1036.4
20260905145003 89 76 0.0 2.0 0.00 0.00 0.00 62 1036.4
20260905144502 88 75 0.0 3.0 0.00 0.00 0.00 60 1036.4
20260905144003 88 114 2.0 3.0 0.00 0.00 0.00 60 1036.4
20260905143503 88 102 0.0 2.0 0.00 0.00 0.00 63 1036.5
20260905143023 87 102 0.0 2.0 0.00 0.00 0.00 66 1036.5
20260905142503 87 191 0.0 2.0 0.00 0.00 0.00 66 1036.6
20260905142002 86 278 0.0 3.0 0.00 0.00 0.00 65 1036.6
20260905141503 86 128 0.0 3.0 0.00 0.00 0.00 67 1036.6
20260905141003 86 210 0.0 1.0 0.00 0.00 0.00 69 1036.6
20260905140523 85 292 0.0 2.0 0.00 0.00 0.00 69 1036.6
20260905140003 85 265 1.0 2.0 0.00 0.00 0.00 69 1036.7
20260905135503 85 170 0.0 0.0 0.00 0.00 0.00 70 1036.8
20260905135003 85 170 0.0 0.0 0.00 0.00 0.00 70 1036.8
20260905134524 84 170 0.0 0.0 0.00 0.00 0.00 71 1036.7
20260905134002 84 170 0.0 0.0 0.00 0.00 0.00 70 1036.8
20260905133503 83 170 0.0 0.0 0.00 0.00 0.00 73 1036.8
20260905133024 83 170 0.0 0.0 0.00 0.00 0.00 73 1036.9
20260905132503 83 170 0.0 0.0 0.00 0.00 0.00 74 1036.9
20260905132003 82 170 0.0 0.0 0.00 0.00 0.00 74 1036.9
20260905131502 81 170 0.0 0.0 0.00 0.00 0.00 76 1036.9
20260905131003 80 170 0.0 0.0 0.00 0.00 0.00 78 1037.0
20260905130502 79 170 0.0 0.0 0.00 0.00 0.00 81 1037.0
20260905130003 78 170 0.0 0.0 0.00 0.00 0.00 83 1037.1
20260905125503 76 170 0.0 0.0 0.00 0.00 0.00 86 1037.0
20260905125003 75 170 0.0 0.0 0.00 0.00 0.00 88 1037.0
20260905124503 74 170 0.0 0.0 0.00 0.00 0.00 91 1037.0
20260905124024 73 170 0.0 0.0 0.00 0.00 0.00 93 1037.1
20260905123503 73 170 0.0 0.0 0.00 0.00 0.00 93 1037.0
20260905123003 73 170 0.0 0.0 0.00 0.00 0.00 93 1037.0
20260905122503 72 170 0.0 0.0 0.00 0.00 0.00 93 1037.0
20260905122003 72 170 0.0 0.0 0.00 0.00 0.00 94 1036.9
20260905121502 72 170 0.0 0.0 0.00 0.00 0.00 94 1036.9
20260905121003 72 170 0.0 0.0 0.00 0.00 0.00 93 1036.9
20260905120502 71 170 0.0 0.0 0.00 0.00 0.00 93 1036.8